Location: Jabiru
(12.6667°S, 132.8333°E)
Time: 10:36:45
(UTC+09:30)

OTV 5 (USA 277) - Visible Passes

Search period start: 19 February 2019 00:00
Search period end: 01 March 2019 00:00
Orbit: 342 x 346 km, 54.5° (Epoch: 17 February)

Date Brightness Start Highest point End Pass type
(mag) Time Alt. Az. Time Alt. Az. Time Alt. Az.
23 Feb ? 05:51:12 10° NNE 05:53:16 18° ENE 05:55:21 10° ESE visible
24 Feb ? 06:13:57 10° NW 06:16:47 59° SW 06:19:39 10° SSE visible
25 Feb ? 05:05:29 17° NE 05:05:42 17° ENE 05:07:41 10° ESE visible
26 Feb ? 05:29:18 64° SW 05:29:18 64° SW 05:32:05 10° SSE visible
27 Feb ? 05:53:00 11° SW 05:53:00 11° SW 05:53:46 10° SW visible
